Frederick, OK

10:05 PM CDT on September 19, 2017 (GMT -0500)
Frederick Municipal

Weather History for KFDR - September, 2012

Change the Weather History Date:

Monday, September 24, 2012

  Actual Average (KLTS) Record (KLTS)
Temperature  
Mean Temperature 81 °F -  
Max Temperature 96 °F 82 °F 98 °F (1998)
Min Temperature 66 °F 57 °F 51 °F (2001)
Cooling Degree Days 16    
Growing Degree Days 31 (Base 50)    
Moisture  
Dew Point 51 °F    
Average Humidity 39    
Maximum Humidity 65    
Minimum Humidity 17    
Precipitation  
Precipitation 0.00 in - - ()
Sea Level Pressure  
Sea Level Pressure 29.92 in    
Wind  
Wind Speed 11 mph (SSW)    
Max Wind Speed 25 mph    
Max Gust Speed 32 mph    
Visibility 10 miles    
Events      
Averages and records for this station are not official NWS values.
T = Trace of Precipitation, MM = Missing Value Source: NWS Daily Summary

Daily Weather History Graph

Daily Weather History Graph

Search for Another Location

Airport or City:

Trip Planner

Search our weather history database for the weather conditions in past years. The results will help you decide how hot, cold, wet, or windy it might be!

Date:

Astronomy

Sep. 24, 2012 Rise Set
Actual Time 7:25 AM CDT 7:29 PM CDT
Civil Twilight 7:00 AM CDT 7:54 PM CDT
Nautical Twilight 6:31 AM CDT 8:23 PM CDT
Astronomical Twilight 6:02 AM CDT 8:52 PM CDT
Moon 4:04 PM CDT (9/24) 1:56 AM CDT (9/24)
Length of Visible Light 12h 53m
Length of Day
12h 03m
Waxing Gibbous, 71% of the Moon is Illuminated
Sep 24
Waxing Gibbous
Sep 29
Full
Oct 8
Last Quarter
Oct 15
New
Oct 21
First Quarter

Hourly Weather History & Observations

Time (CDT) Temp. Heat Index Dew Point Humidity Pressure Visibility Wind Dir Wind Speed Gust Speed Precip Events Conditions
12:53 AM 71.1 °F - 52.0 °F 51% 29.99 in 10.0 mi South 6.9 mph - N/A   Clear
1:53 AM 69.1 °F - 50.0 °F 51% 29.99 in 10.0 mi South 5.8 mph - N/A   Clear
2:53 AM 66.9 °F - 50.0 °F 54% 29.99 in 10.0 mi South 6.9 mph - N/A   Clear
3:53 AM 66.9 °F - 50.0 °F 54% 29.96 in 10.0 mi South 8.1 mph - N/A   Clear
4:53 AM 66.9 °F - 51.1 °F 57% 29.96 in 10.0 mi SSW 8.1 mph - N/A   Clear
5:53 AM 66.0 °F - 52.0 °F 60% 29.97 in 10.0 mi SSW 6.9 mph - N/A   Clear
6:53 AM 66.0 °F - 53.1 °F 63% 29.99 in 10.0 mi SSW 6.9 mph - N/A   Clear
7:53 AM 66.0 °F - 54.0 °F 65% 30.00 in 10.0 mi SSW 6.9 mph - N/A   Clear
8:53 AM 72.0 °F - 55.9 °F 57% 30.01 in 10.0 mi SSW 10.4 mph - N/A   Clear
9:53 AM 80.1 °F 80.2 °F 55.9 °F 43% 30.01 in 10.0 mi SW 19.6 mph 26.5 mph N/A   Clear
10:53 AM 84.0 °F 83.5 °F 57.9 °F 41% 30.01 in 10.0 mi SW 18.4 mph - N/A   Clear
11:53 AM 88.0 °F 87.1 °F 59.0 °F 37% 29.99 in 10.0 mi SW 19.6 mph - N/A   Clear
12:53 PM 91.9 °F 90.8 °F 57.9 °F 32% 29.96 in 10.0 mi WSW 16.1 mph 25.3 mph N/A   Clear
1:53 PM 95.0 °F - 51.1 °F 22% 29.92 in 10.0 mi SSW 21.9 mph 32.2 mph N/A   Clear
2:53 PM 93.9 °F - 52.0 °F 24% 29.87 in 10.0 mi SSW 25.3 mph 31.1 mph N/A   Clear
3:53 PM 96.1 °F - 51.1 °F 22% 29.84 in 10.0 mi South 18.4 mph 31.1 mph N/A   Partly Cloudy
4:53 PM 95.0 °F - 50.0 °F 22% 29.81 in 10.0 mi SSW 20.7 mph 29.9 mph N/A   Clear
5:53 PM 95.0 °F - 44.1 °F 17% 29.81 in 10.0 mi SSW 23.0 mph 31.1 mph N/A   Clear
6:53 PM 91.9 °F - 44.1 °F 19% 29.81 in 10.0 mi South 21.9 mph - N/A   Clear
7:53 PM 84.9 °F - 45.0 °F 25% 29.82 in 10.0 mi South 9.2 mph - N/A   Clear
8:53 PM 81.0 °F - 48.0 °F 31% 29.82 in 10.0 mi South 8.1 mph - N/A   Clear
9:53 PM 82.0 °F - 45.0 °F 27% 29.82 in 10.0 mi South 10.4 mph - N/A   Clear
10:53 PM 82.0 °F - 46.9 °F 29% 29.82 in 10.0 mi South 15.0 mph - N/A   Clear
11:53 PM 79.0 °F - 48.9 °F 35% 29.81 in 10.0 mi South 16.1 mph - N/A   Clear